Year,Month,Day,Hour,Minute,Value (Times are PST for temperature in C)
2013,07,14,00,00,15.50
2013,07,14,00,01,15.50
2013,07,14,00,02,15.50
2013,07,14,00,03,15.50
2013,07,14,00,04,15.50
2013,07,14,00,05,15.50
2013,07,14,00,06,15.50
2013,07,14,00,07,15.40
2013,07,14,00,08,15.40
2013,07,14,00,09,15.40
2013,07,14,00,10,15.40
2013,07,14,00,11,15.30
2013,07,14,00,12,15.30
2013,07,14,00,13,15.30
2013,07,14,00,14,15.20
2013,07,14,00,15,15.20
2013,07,14,00,16,15.10
2013,07,14,00,17,15.10
2013,07,14,00,18,15.00
2013,07,14,00,19,15.00
2013,07,14,00,20,14.90
2013,07,14,00,21,14.90
2013,07,14,00,22,14.90
2013,07,14,00,23,14.80
2013,07,14,00,24,14.80
2013,07,14,00,25,14.80
2013,07,14,00,26,14.70
2013,07,14,00,27,14.70
2013,07,14,00,28,14.60
2013,07,14,00,29,14.60
2013,07,14,00,30,14.60
2013,07,14,00,31,14.50
2013,07,14,00,32,14.50
2013,07,14,00,33,14.50
2013,07,14,00,34,14.40
2013,07,14,00,35,14.40
2013,07,14,00,36,14.40
2013,07,14,00,37,14.40
2013,07,14,00,38,14.30
2013,07,14,00,39,14.30
2013,07,14,00,40,14.30
2013,07,14,00,41,14.30
2013,07,14,00,42,14.30
2013,07,14,00,43,14.30
2013,07,14,00,44,14.30
2013,07,14,00,45,14.30
2013,07,14,00,46,14.30
2013,07,14,00,47,14.30
2013,07,14,00,48,14.30
2013,07,14,00,49,14.30
2013,07,14,00,50,14.20
2013,07,14,00,51,14.20
2013,07,14,00,52,14.20
2013,07,14,00,53,14.20
2013,07,14,00,54,14.20
2013,07,14,00,55,14.10
2013,07,14,00,56,14.00
2013,07,14,00,57,14.00
2013,07,14,00,58,14.00
2013,07,14,00,59,13.90
2013,07,14,01,00,13.90
2013,07,14,01,01,13.90
2013,07,14,01,02,13.90
2013,07,14,01,03,13.90
2013,07,14,01,04,13.90
2013,07,14,01,05,13.90
2013,07,14,01,06,13.90
2013,07,14,01,07,13.90
2013,07,14,01,08,13.90
2013,07,14,01,09,13.90
2013,07,14,01,10,13.90
2013,07,14,01,11,14.00
2013,07,14,01,12,13.90
2013,07,14,01,13,13.90
2013,07,14,01,14,13.90
2013,07,14,01,15,13.90
2013,07,14,01,16,13.90
2013,07,14,01,17,13.90
2013,07,14,01,18,13.90
2013,07,14,01,19,13.80
2013,07,14,01,20,13.80
2013,07,14,01,21,13.80
2013,07,14,01,22,13.80
2013,07,14,01,23,13.80
2013,07,14,01,24,13.80
2013,07,14,01,25,13.80
2013,07,14,01,26,13.80
2013,07,14,01,27,13.90
2013,07,14,01,28,13.90
2013,07,14,01,29,13.90
2013,07,14,01,30,13.90
2013,07,14,01,31,13.90
2013,07,14,01,32,13.90
2013,07,14,01,33,13.90
2013,07,14,01,34,13.90
2013,07,14,01,35,13.90
2013,07,14,01,36,13.90
2013,07,14,01,37,13.90
2013,07,14,01,38,13.90
2013,07,14,01,39,13.80
2013,07,14,01,40,13.80
2013,07,14,01,41,13.80
2013,07,14,01,42,13.80
2013,07,14,01,43,13.80
2013,07,14,01,44,13.80
2013,07,14,01,45,13.70
2013,07,14,01,46,13.70
2013,07,14,01,47,13.70
2013,07,14,01,48,13.70
2013,07,14,01,49,13.60
2013,07,14,01,50,13.60
2013,07,14,01,51,13.60
2013,07,14,01,52,13.50
2013,07,14,01,53,13.50
2013,07,14,01,54,13.50
2013,07,14,01,55,13.50
2013,07,14,01,56,13.40
2013,07,14,01,57,13.40
2013,07,14,01,58,13.40
2013,07,14,01,59,13.30
2013,07,14,02,00,13.30
2013,07,14,02,01,13.30
2013,07,14,02,02,13.30
2013,07,14,02,03,13.30
2013,07,14,02,04,13.30
2013,07,14,02,05,13.30
2013,07,14,02,06,13.30
2013,07,14,02,07,13.30
2013,07,14,02,08,13.30
2013,07,14,02,09,13.30
2013,07,14,02,10,13.30
2013,07,14,02,11,13.30
2013,07,14,02,12,13.30
2013,07,14,02,13,13.30
2013,07,14,02,14,13.20
2013,07,14,02,15,13.20
2013,07,14,02,16,13.10
2013,07,14,02,17,13.10
2013,07,14,02,18,13.10
2013,07,14,02,19,13.10
2013,07,14,02,20,13.00
2013,07,14,02,21,13.00
2013,07,14,02,22,13.00
2013,07,14,02,23,13.00
2013,07,14,02,24,13.00
2013,07,14,02,25,13.00
2013,07,14,02,26,13.00
2013,07,14,02,27,13.00
2013,07,14,02,28,13.00
2013,07,14,02,29,13.00
2013,07,14,02,30,13.00
2013,07,14,02,31,13.00
2013,07,14,02,32,13.00
2013,07,14,02,33,13.00
2013,07,14,02,34,13.00
2013,07,14,02,35,13.00
2013,07,14,02,36,12.90
2013,07,14,02,37,12.90
2013,07,14,02,38,12.90
2013,07,14,02,39,12.90
2013,07,14,02,40,12.90
2013,07,14,02,41,12.80
2013,07,14,02,42,12.80
2013,07,14,02,43,12.80
2013,07,14,02,44,12.80
2013,07,14,02,45,12.80
2013,07,14,02,46,12.80
2013,07,14,02,47,12.80
2013,07,14,02,48,12.80
2013,07,14,02,49,12.70
2013,07,14,02,50,12.70
2013,07,14,02,51,12.70
2013,07,14,02,52,12.70
2013,07,14,02,53,12.70
2013,07,14,02,54,12.70
2013,07,14,02,55,12.60
2013,07,14,02,56,12.60
2013,07,14,02,57,12.60
2013,07,14,02,58,12.50
2013,07,14,02,59,12.50
2013,07,14,03,00,12.50
2013,07,14,03,01,12.40
2013,07,14,03,02,12.40
2013,07,14,03,03,12.40
2013,07,14,03,04,12.40
2013,07,14,03,05,12.30
2013,07,14,03,06,12.30
2013,07,14,03,07,12.30
2013,07,14,03,08,12.30
2013,07,14,03,09,12.30
2013,07,14,03,10,12.30
2013,07,14,03,11,12.20
2013,07,14,03,12,12.20
2013,07,14,03,13,12.20
2013,07,14,03,14,12.20
2013,07,14,03,15,12.20
2013,07,14,03,16,12.10
2013,07,14,03,17,12.10
2013,07,14,03,18,12.10
2013,07,14,03,19,12.10
2013,07,14,03,20,12.10
2013,07,14,03,21,12.10
2013,07,14,03,22,12.10
2013,07,14,03,23,12.00
2013,07,14,03,24,12.00
2013,07,14,03,25,12.00
2013,07,14,03,26,12.00
2013,07,14,03,27,12.00
2013,07,14,03,28,12.00
2013,07,14,03,29,12.00
2013,07,14,03,30,12.10
2013,07,14,03,31,12.10
2013,07,14,03,32,12.10
2013,07,14,03,33,12.10
2013,07,14,03,34,12.10
2013,07,14,03,35,12.10
2013,07,14,03,36,12.10
2013,07,14,03,37,12.10
2013,07,14,03,38,12.00
2013,07,14,03,39,12.00
2013,07,14,03,40,12.00
2013,07,14,03,41,12.00
2013,07,14,03,42,12.00
2013,07,14,03,43,12.10
2013,07,14,03,44,12.10
2013,07,14,03,45,12.10
2013,07,14,03,46,12.10
2013,07,14,03,47,12.10
2013,07,14,03,48,12.10
2013,07,14,03,49,12.10
2013,07,14,03,50,12.10
2013,07,14,03,51,12.00
2013,07,14,03,52,12.00
2013,07,14,03,53,12.00
2013,07,14,03,54,12.00
2013,07,14,03,55,11.90
2013,07,14,03,56,11.90
2013,07,14,03,57,11.90
2013,07,14,03,58,11.90
2013,07,14,03,59,11.80
2013,07,14,04,00,11.80
2013,07,14,04,01,11.80
2013,07,14,04,02,11.80
2013,07,14,04,03,11.90
2013,07,14,04,04,11.90
2013,07,14,04,05,11.90
2013,07,14,04,06,11.90
2013,07,14,04,07,11.90
2013,07,14,04,08,11.90
2013,07,14,04,09,11.90
2013,07,14,04,10,11.90
2013,07,14,04,11,11.90
2013,07,14,04,12,11.80
2013,07,14,04,13,11.80
2013,07,14,04,14,11.80
2013,07,14,04,15,11.80
2013,07,14,04,16,11.80
2013,07,14,04,17,11.80
2013,07,14,04,18,11.80
2013,07,14,04,19,11.80
2013,07,14,04,20,11.80
2013,07,14,04,21,11.80
2013,07,14,04,22,11.80
2013,07,14,04,23,11.80
2013,07,14,04,24,11.80
2013,07,14,04,25,11.80
2013,07,14,04,26,11.80
2013,07,14,04,27,11.80
2013,07,14,04,28,11.80
2013,07,14,04,29,11.80
2013,07,14,04,30,11.80
2013,07,14,04,31,11.80
2013,07,14,04,32,11.80
2013,07,14,04,33,11.80
2013,07,14,04,34,11.80
2013,07,14,04,35,11.80
2013,07,14,04,36,11.80
2013,07,14,04,37,11.70
2013,07,14,04,38,11.70
2013,07,14,04,39,11.70
2013,07,14,04,40,11.60
2013,07,14,04,41,11.60
2013,07,14,04,42,11.60
2013,07,14,04,43,11.60
2013,07,14,04,44,11.60
2013,07,14,04,45,11.60
2013,07,14,04,46,11.60
2013,07,14,04,47,11.40
2013,07,14,04,48,11.40
2013,07,14,04,49,11.40
2013,07,14,04,50,11.40
2013,07,14,04,51,11.40
2013,07,14,04,52,11.50
2013,07,14,04,53,11.60
2013,07,14,04,54,11.60
2013,07,14,04,55,11.60
2013,07,14,04,56,11.60
2013,07,14,04,57,11.60
2013,07,14,04,58,11.60
2013,07,14,04,59,11.60
2013,07,14,05,00,11.50
2013,07,14,05,01,11.40
2013,07,14,05,02,11.40
2013,07,14,05,03,11.40
2013,07,14,05,04,11.60
2013,07,14,05,05,11.60
2013,07,14,05,06,11.60
2013,07,14,05,07,11.60
2013,07,14,05,08,11.50
2013,07,14,05,09,11.40
2013,07,14,05,10,11.40
2013,07,14,05,11,11.40
2013,07,14,05,12,11.40
2013,07,14,05,13,11.40
2013,07,14,05,14,11.40
2013,07,14,05,15,11.40
2013,07,14,05,16,11.40
2013,07,14,05,17,11.40
2013,07,14,05,18,11.40
2013,07,14,05,19,11.30
2013,07,14,05,20,11.30
2013,07,14,05,21,11.30
2013,07,14,05,22,11.30
2013,07,14,05,23,11.30
2013,07,14,05,24,11.20
2013,07,14,05,25,11.20
2013,07,14,05,26,11.20
2013,07,14,05,27,11.10
2013,07,14,05,28,11.10
2013,07,14,05,29,11.10
2013,07,14,05,30,11.00
2013,07,14,05,31,10.90
2013,07,14,05,32,10.90
2013,07,14,05,33,10.90
2013,07,14,05,34,10.90
2013,07,14,05,35,10.90
2013,07,14,05,36,10.90
2013,07,14,05,37,10.90
2013,07,14,05,38,10.90
2013,07,14,05,39,10.90
2013,07,14,05,40,10.90
2013,07,14,05,41,10.90
2013,07,14,05,42,10.90
2013,07,14,05,43,10.80
2013,07,14,05,44,10.80
2013,07,14,05,45,10.80
2013,07,14,05,46,10.80
2013,07,14,05,47,10.70
2013,07,14,05,48,10.70
2013,07,14,05,49,10.70
2013,07,14,05,50,10.70
2013,07,14,05,51,10.70
2013,07,14,05,52,10.70
2013,07,14,05,53,10.70
2013,07,14,05,54,10.70
2013,07,14,05,55,10.70
2013,07,14,05,56,10.70
2013,07,14,05,57,10.70
2013,07,14,05,58,10.80
2013,07,14,05,59,10.80
2013,07,14,06,00,10.80
2013,07,14,06,01,10.80
2013,07,14,06,02,10.90
2013,07,14,06,03,10.90
2013,07,14,06,04,10.90
2013,07,14,06,05,10.90
2013,07,14,06,06,11.00
2013,07,14,06,07,11.10
2013,07,14,06,08,11.10
2013,07,14,06,09,11.20
2013,07,14,06,10,11.20
2013,07,14,06,11,11.30
2013,07,14,06,12,11.30
2013,07,14,06,13,11.40
2013,07,14,06,14,11.40
2013,07,14,06,15,11.40
2013,07,14,06,16,11.40
2013,07,14,06,17,11.40
2013,07,14,06,18,11.50
2013,07,14,06,19,11.60
2013,07,14,06,20,11.60
2013,07,14,06,21,11.60
2013,07,14,06,22,11.70
2013,07,14,06,23,11.80
2013,07,14,06,24,11.80
2013,07,14,06,25,11.90
2013,07,14,06,26,12.00
2013,07,14,06,27,12.00
2013,07,14,06,28,12.10
2013,07,14,06,29,12.10
2013,07,14,06,30,12.10
2013,07,14,06,31,12.10
2013,07,14,06,32,12.20
2013,07,14,06,33,12.20
2013,07,14,06,34,12.30
2013,07,14,06,35,12.30
2013,07,14,06,36,12.30
2013,07,14,06,37,12.40
2013,07,14,06,38,12.50
2013,07,14,06,39,12.60
2013,07,14,06,40,12.70
2013,07,14,06,41,12.80
2013,07,14,06,42,12.90
2013,07,14,06,43,13.00
2013,07,14,06,44,13.00
2013,07,14,06,45,13.00
2013,07,14,06,46,13.10
2013,07,14,06,47,13.00
2013,07,14,06,48,13.00
2013,07,14,06,49,13.00
2013,07,14,06,50,13.00
2013,07,14,06,51,13.00
2013,07,14,06,52,13.00
2013,07,14,06,53,13.00
2013,07,14,06,54,13.00
2013,07,14,06,55,13.10
2013,07,14,06,56,13.10
2013,07,14,06,57,13.20
2013,07,14,06,58,13.20
2013,07,14,06,59,13.30
2013,07,14,07,00,13.40
2013,07,14,07,01,13.50
2013,07,14,07,02,13.70
2013,07,14,07,03,13.80
2013,07,14,07,04,13.90
2013,07,14,07,05,14.00
2013,07,14,07,06,14.10
2013,07,14,07,07,14.20
2013,07,14,07,08,14.20
2013,07,14,07,09,14.20
2013,07,14,07,10,14.30
2013,07,14,07,11,14.30
2013,07,14,07,12,14.40
2013,07,14,07,13,14.50
2013,07,14,07,14,14.50
2013,07,14,07,15,14.50
2013,07,14,07,16,14.60
2013,07,14,07,17,14.60
2013,07,14,07,18,14.70
2013,07,14,07,19,14.80
2013,07,14,07,20,14.90
2013,07,14,07,21,15.00
2013,07,14,07,22,15.10
2013,07,14,07,23,15.10
2013,07,14,07,24,15.10
2013,07,14,07,25,15.20
2013,07,14,07,26,15.20
2013,07,14,07,27,15.20
2013,07,14,07,28,15.10
2013,07,14,07,29,15.10
2013,07,14,07,30,15.10
2013,07,14,07,31,15.10
2013,07,14,07,32,15.20
2013,07,14,07,33,15.20
2013,07,14,07,34,15.30
2013,07,14,07,35,15.40
2013,07,14,07,36,15.40
2013,07,14,07,37,15.40
2013,07,14,07,38,15.40
2013,07,14,07,39,15.50
2013,07,14,07,40,15.60
2013,07,14,07,41,15.70
2013,07,14,07,42,15.80
2013,07,14,07,43,15.80
2013,07,14,07,44,15.90
2013,07,14,07,45,16.00
2013,07,14,07,46,16.10
2013,07,14,07,47,16.20
2013,07,14,07,48,16.20
2013,07,14,07,49,16.30
2013,07,14,07,50,16.40
2013,07,14,07,51,16.40
2013,07,14,07,52,16.40
2013,07,14,07,53,16.50
2013,07,14,07,54,16.60
2013,07,14,07,55,16.70
2013,07,14,07,56,16.70
2013,07,14,07,57,16.70
2013,07,14,07,58,16.80
2013,07,14,07,59,16.90
2013,07,14,08,00,17.00
2013,07,14,08,01,17.00
2013,07,14,08,02,17.10
2013,07,14,08,03,17.10
2013,07,14,08,04,17.10
2013,07,14,08,05,17.10
2013,07,14,08,06,17.10
2013,07,14,08,07,17.10
2013,07,14,08,08,17.10
2013,07,14,08,09,17.10
2013,07,14,08,10,17.20
2013,07,14,08,11,17.20
2013,07,14,08,12,17.30
2013,07,14,08,13,17.30
2013,07,14,08,14,17.30
2013,07,14,08,15,17.40
2013,07,14,08,16,17.50
2013,07,14,08,17,17.50
2013,07,14,08,18,17.60
2013,07,14,08,19,17.70
2013,07,14,08,20,17.70
2013,07,14,08,21,17.70
2013,07,14,08,22,17.70
2013,07,14,08,23,17.70
2013,07,14,08,24,17.70
2013,07,14,08,25,17.80
2013,07,14,08,26,17.80
2013,07,14,08,27,17.80
2013,07,14,08,28,17.80
2013,07,14,08,29,17.80
2013,07,14,08,30,17.80
2013,07,14,08,31,17.80
2013,07,14,08,32,17.90
2013,07,14,08,33,18.00
2013,07,14,08,34,18.10
2013,07,14,08,35,18.30
2013,07,14,08,36,18.40
2013,07,14,08,37,18.40
2013,07,14,08,38,18.50
2013,07,14,08,39,18.50
2013,07,14,08,40,18.60
2013,07,14,08,41,18.70
2013,07,14,08,42,18.70
2013,07,14,08,43,18.90
2013,07,14,08,44,18.90
2013,07,14,08,45,18.90
2013,07,14,08,46,18.90
2013,07,14,08,47,18.90
2013,07,14,08,48,19.00
2013,07,14,08,49,19.10
2013,07,14,08,50,19.10
2013,07,14,08,51,19.10
2013,07,14,08,52,19.20
2013,07,14,08,53,19.30
2013,07,14,08,54,19.30
2013,07,14,08,55,19.30
2013,07,14,08,56,19.30
2013,07,14,08,57,19.40
2013,07,14,08,58,19.50
2013,07,14,08,59,19.50
2013,07,14,09,00,19.60
2013,07,14,09,01,19.70
2013,07,14,09,02,19.80
2013,07,14,09,03,19.80
2013,07,14,09,04,19.70
2013,07,14,09,05,19.70
2013,07,14,09,06,19.80
2013,07,14,09,07,19.80
2013,07,14,09,08,19.70
2013,07,14,09,09,19.60
2013,07,14,09,10,19.50
2013,07,14,09,11,19.50
2013,07,14,09,12,19.50
2013,07,14,09,13,19.50
2013,07,14,09,14,19.60
2013,07,14,09,15,19.70
2013,07,14,09,16,19.80
2013,07,14,09,17,19.80
2013,07,14,09,18,19.90
2013,07,14,09,19,19.90
2013,07,14,09,20,20.10
2013,07,14,09,21,20.20
2013,07,14,09,22,20.20
2013,07,14,09,23,20.20
2013,07,14,09,24,20.20
2013,07,14,09,25,20.20
2013,07,14,09,26,20.20
2013,07,14,09,27,20.30
2013,07,14,09,28,20.30
2013,07,14,09,29,20.30
2013,07,14,09,30,20.20
2013,07,14,09,31,20.20
2013,07,14,09,32,20.20
2013,07,14,09,33,20.20
2013,07,14,09,34,20.20
2013,07,14,09,35,20.10
2013,07,14,09,36,20.00
2013,07,14,09,37,19.90
2013,07,14,09,38,19.90
2013,07,14,09,39,19.70
2013,07,14,09,40,19.60
2013,07,14,09,41,19.50
2013,07,14,09,42,19.50
2013,07,14,09,43,19.60
2013,07,14,09,44,19.60
2013,07,14,09,45,19.70
2013,07,14,09,46,19.70
2013,07,14,09,47,19.70
2013,07,14,09,48,19.70
2013,07,14,09,49,19.60
2013,07,14,09,50,19.60
2013,07,14,09,51,19.60
2013,07,14,09,52,19.70
2013,07,14,09,53,19.70
2013,07,14,09,54,19.70
2013,07,14,09,55,19.70
2013,07,14,09,56,19.80
2013,07,14,09,57,19.90
2013,07,14,09,58,20.00
2013,07,14,09,59,20.00
2013,07,14,10,00,19.90
2013,07,14,10,01,19.90
2013,07,14,10,02,19.90
2013,07,14,10,03,19.90
2013,07,14,10,04,19.90
2013,07,14,10,05,19.90
2013,07,14,10,06,19.90
2013,07,14,10,07,20.00
2013,07,14,10,08,20.10
2013,07,14,10,09,20.20
2013,07,14,10,10,20.30
2013,07,14,10,11,20.30
2013,07,14,10,12,20.40
2013,07,14,10,13,20.30
2013,07,14,10,14,20.30
2013,07,14,10,15,20.30
2013,07,14,10,16,20.40
2013,07,14,10,17,20.50
2013,07,14,10,18,20.50
2013,07,14,10,19,20.50
2013,07,14,10,20,20.50
2013,07,14,10,21,20.30
2013,07,14,10,22,20.30
2013,07,14,10,23,20.30
2013,07,14,10,24,20.20
2013,07,14,10,25,20.10
2013,07,14,10,26,20.10
2013,07,14,10,27,20.10
2013,07,14,10,28,20.10
2013,07,14,10,29,20.10
2013,07,14,10,30,20.10
2013,07,14,10,31,20.20
2013,07,14,10,32,20.20
2013,07,14,10,33,20.20
2013,07,14,10,34,20.20
2013,07,14,10,35,20.30
2013,07,14,10,36,20.30
2013,07,14,10,37,20.30
2013,07,14,10,38,20.30
2013,07,14,10,39,20.20
2013,07,14,10,40,20.20
2013,07,14,10,41,20.10
2013,07,14,10,42,19.90
2013,07,14,10,43,19.80
2013,07,14,10,44,19.80
2013,07,14,10,45,19.70
2013,07,14,10,46,19.60
2013,07,14,10,47,19.50
2013,07,14,10,48,19.60
2013,07,14,10,49,19.60
2013,07,14,10,50,19.70
2013,07,14,10,51,19.80
2013,07,14,10,52,19.80
2013,07,14,10,53,19.80
2013,07,14,10,54,19.80
2013,07,14,10,55,19.70
2013,07,14,10,56,19.60
2013,07,14,10,57,19.60
2013,07,14,10,58,19.50
2013,07,14,10,59,19.50
2013,07,14,11,00,19.40
2013,07,14,11,01,19.40
2013,07,14,11,02,19.50
2013,07,14,11,03,19.50
2013,07,14,11,04,19.50
2013,07,14,11,05,19.50
2013,07,14,11,06,19.40
2013,07,14,11,07,19.50
2013,07,14,11,08,19.50
2013,07,14,11,09,19.40
2013,07,14,11,10,19.40
2013,07,14,11,11,19.40
2013,07,14,11,12,19.30
2013,07,14,11,13,19.30
2013,07,14,11,14,19.20
2013,07,14,11,15,19.20
2013,07,14,11,16,19.10
2013,07,14,11,17,19.10
2013,07,14,11,18,19.10
2013,07,14,11,19,19.20
2013,07,14,11,20,19.40
2013,07,14,11,21,19.70
2013,07,14,11,22,19.80
2013,07,14,11,23,19.70
2013,07,14,11,24,19.60
2013,07,14,11,25,19.40
2013,07,14,11,26,19.30
2013,07,14,11,27,19.30
2013,07,14,11,28,19.40
2013,07,14,11,29,19.50
2013,07,14,11,30,19.40
2013,07,14,11,31,19.40
2013,07,14,11,32,19.50
2013,07,14,11,33,19.50
2013,07,14,11,34,19.50
2013,07,14,11,35,19.60
2013,07,14,11,36,19.70
2013,07,14,11,37,19.80
2013,07,14,11,38,19.90
2013,07,14,11,39,20.10
2013,07,14,11,40,20.20
2013,07,14,11,41,20.20
2013,07,14,11,42,20.20
2013,07,14,11,43,20.10
2013,07,14,11,44,19.90
2013,07,14,11,45,19.90
2013,07,14,11,46,19.90
2013,07,14,11,47,19.90
2013,07,14,11,48,19.90
2013,07,14,11,49,19.90
2013,07,14,11,50,19.90
2013,07,14,11,51,19.80
2013,07,14,11,52,19.80
2013,07,14,11,53,19.90
2013,07,14,11,54,19.90
2013,07,14,11,55,20.00
2013,07,14,11,56,20.10
2013,07,14,11,57,20.10
2013,07,14,11,58,20.00
2013,07,14,11,59,19.90
2013,07,14,12,00,19.90
2013,07,14,12,01,19.90
2013,07,14,12,02,19.90
2013,07,14,12,03,19.90
2013,07,14,12,04,20.00
2013,07,14,12,05,20.10
2013,07,14,12,06,20.20
2013,07,14,12,07,20.20
2013,07,14,12,08,20.20
2013,07,14,12,09,20.20
2013,07,14,12,10,20.30
2013,07,14,12,11,20.30
2013,07,14,12,12,20.30
2013,07,14,12,13,20.40
2013,07,14,12,14,20.50
2013,07,14,12,15,20.80
2013,07,14,12,16,21.00
2013,07,14,12,17,20.90
2013,07,14,12,18,20.80
2013,07,14,12,19,20.60
2013,07,14,12,20,20.50
2013,07,14,12,21,20.30
2013,07,14,12,22,20.30
2013,07,14,12,23,20.40
2013,07,14,12,24,20.50
2013,07,14,12,25,20.50
2013,07,14,12,26,20.40
2013,07,14,12,27,20.30
2013,07,14,12,28,20.20
2013,07,14,12,29,20.10
2013,07,14,12,30,20.10
2013,07,14,12,31,20.20
2013,07,14,12,32,20.20
2013,07,14,12,33,20.20
2013,07,14,12,34,20.00
2013,07,14,12,35,19.90
2013,07,14,12,36,19.70
2013,07,14,12,37,19.60
2013,07,14,12,38,19.50
2013,07,14,12,39,19.60
2013,07,14,12,40,19.60
2013,07,14,12,41,19.70
2013,07,14,12,42,19.80
2013,07,14,12,43,19.90
2013,07,14,12,44,19.80
2013,07,14,12,45,19.70
2013,07,14,12,46,19.70
2013,07,14,12,47,19.80
2013,07,14,12,48,19.80
2013,07,14,12,49,19.90
2013,07,14,12,50,19.90
2013,07,14,12,51,20.00
2013,07,14,12,52,19.90
2013,07,14,12,53,19.90
2013,07,14,12,54,20.10
2013,07,14,12,55,20.00
2013,07,14,12,56,19.80
2013,07,14,12,57,19.70
2013,07,14,12,58,19.70
2013,07,14,12,59,19.70
2013,07,14,13,00,19.60
2013,07,14,13,01,19.70
2013,07,14,13,02,19.80
2013,07,14,13,03,19.80
2013,07,14,13,04,19.70
2013,07,14,13,05,19.70
2013,07,14,13,06,19.70
2013,07,14,13,07,19.60
2013,07,14,13,08,19.60
2013,07,14,13,09,19.60
2013,07,14,13,10,19.60
2013,07,14,13,11,19.60
2013,07,14,13,12,19.60
2013,07,14,13,13,19.60
2013,07,14,13,14,19.60
2013,07,14,13,15,19.40
2013,07,14,13,16,19.30
2013,07,14,13,17,19.40
2013,07,14,13,18,19.50
2013,07,14,13,19,19.60
2013,07,14,13,20,19.80
2013,07,14,13,21,19.80
2013,07,14,13,22,19.90
2013,07,14,13,23,19.90
2013,07,14,13,24,19.80
2013,07,14,13,25,19.80
2013,07,14,13,26,19.70
2013,07,14,13,27,19.70
2013,07,14,13,28,19.70
2013,07,14,13,29,19.70
2013,07,14,13,30,19.70
2013,07,14,13,31,19.80
2013,07,14,13,32,19.90
2013,07,14,13,33,20.10
2013,07,14,13,34,20.30
2013,07,14,13,35,20.40
2013,07,14,13,36,20.40
2013,07,14,13,37,20.50
2013,07,14,13,38,20.70
2013,07,14,13,39,20.80
2013,07,14,13,40,20.70
2013,07,14,13,41,20.80
2013,07,14,13,42,20.70
2013,07,14,13,43,20.60
2013,07,14,13,44,20.50
2013,07,14,13,45,20.50
2013,07,14,13,46,20.60
2013,07,14,13,47,20.80
2013,07,14,13,48,20.90
2013,07,14,13,49,20.90
2013,07,14,13,50,20.90
2013,07,14,13,51,20.90
2013,07,14,13,52,21.00
2013,07,14,13,53,20.90
2013,07,14,13,54,20.70
2013,07,14,13,55,20.60
2013,07,14,13,56,20.40
2013,07,14,13,57,20.00
2013,07,14,13,58,19.80
2013,07,14,13,59,19.50
2013,07,14,14,00,19.10
2013,07,14,14,01,19.00
2013,07,14,14,02,19.10
2013,07,14,14,03,19.20
2013,07,14,14,04,19.40
2013,07,14,14,05,19.40
2013,07,14,14,06,19.20
2013,07,14,14,07,19.00
2013,07,14,14,08,18.90
2013,07,14,14,09,18.70
2013,07,14,14,10,18.70
2013,07,14,14,11,18.90
2013,07,14,14,12,19.10
2013,07,14,14,13,19.10
2013,07,14,14,14,19.10
2013,07,14,14,15,19.00
2013,07,14,14,16,19.00
2013,07,14,14,17,18.80
2013,07,14,14,18,18.70
2013,07,14,14,19,18.60
2013,07,14,14,20,18.60
2013,07,14,14,21,18.40
2013,07,14,14,22,18.30
2013,07,14,14,23,18.20
2013,07,14,14,24,18.00
2013,07,14,14,25,17.90
2013,07,14,14,26,17.90
2013,07,14,14,27,17.90
2013,07,14,14,28,18.00
2013,07,14,14,29,18.20
2013,07,14,14,30,18.20
2013,07,14,14,31,18.00
2013,07,14,14,32,17.90
2013,07,14,14,33,17.80
2013,07,14,14,34,17.60
2013,07,14,14,35,17.40
2013,07,14,14,36,17.30
2013,07,14,14,37,17.10
2013,07,14,14,38,17.10
2013,07,14,14,39,17.10
2013,07,14,14,40,17.20
2013,07,14,14,41,17.30
2013,07,14,14,42,17.30
2013,07,14,14,43,17.20
2013,07,14,14,44,17.30
2013,07,14,14,45,17.30
2013,07,14,14,46,17.30
2013,07,14,14,47,17.30
2013,07,14,14,48,17.20
2013,07,14,14,49,17.10
2013,07,14,14,50,17.00
2013,07,14,14,51,17.10
2013,07,14,14,52,17.10
2013,07,14,14,53,17.00
2013,07,14,14,54,17.10
2013,07,14,14,55,17.10
2013,07,14,14,56,17.20
2013,07,14,14,57,17.30
2013,07,14,14,58,17.50
2013,07,14,14,59,17.60
2013,07,14,15,00,17.60
2013,07,14,15,01,17.40
2013,07,14,15,02,17.30
2013,07,14,15,03,17.20
2013,07,14,15,04,17.20
2013,07,14,15,05,17.20
2013,07,14,15,06,17.20
2013,07,14,15,07,17.20
2013,07,14,15,08,17.30
2013,07,14,15,09,17.30
2013,07,14,15,10,17.30
2013,07,14,15,11,17.10
2013,07,14,15,12,17.10
2013,07,14,15,13,17.20
2013,07,14,15,14,17.20
2013,07,14,15,15,17.10
2013,07,14,15,16,17.00
2013,07,14,15,17,16.90
2013,07,14,15,18,16.70
2013,07,14,15,19,16.70
2013,07,14,15,20,16.70
2013,07,14,15,21,16.70
2013,07,14,15,22,16.60
2013,07,14,15,23,16.60
2013,07,14,15,24,16.70
2013,07,14,15,25,16.80
2013,07,14,15,26,16.90
2013,07,14,15,27,16.90
2013,07,14,15,28,16.90
2013,07,14,15,29,16.90
2013,07,14,15,30,16.80
2013,07,14,15,31,17.00
2013,07,14,15,32,17.30
2013,07,14,15,33,17.40
2013,07,14,15,34,17.30
2013,07,14,15,35,17.10
2013,07,14,15,36,16.80
2013,07,14,15,37,16.60
2013,07,14,15,38,16.40
2013,07,14,15,39,16.40
2013,07,14,15,40,16.40
2013,07,14,15,41,16.50
2013,07,14,15,42,16.80
2013,07,14,15,43,17.10
2013,07,14,15,44,17.40
2013,07,14,15,45,17.70
2013,07,14,15,46,17.80
2013,07,14,15,47,17.80
2013,07,14,15,48,17.90
2013,07,14,15,49,17.90
2013,07,14,15,50,17.90
2013,07,14,15,51,17.90
2013,07,14,15,52,17.90
2013,07,14,15,53,18.00
2013,07,14,15,54,18.20
2013,07,14,15,55,18.30
2013,07,14,15,56,18.50
2013,07,14,15,57,18.60
2013,07,14,15,58,18.70
2013,07,14,15,59,18.80
2013,07,14,16,00,18.80
2013,07,14,16,01,18.90
2013,07,14,16,02,18.90
2013,07,14,16,03,19.00
2013,07,14,16,04,19.10
2013,07,14,16,05,19.20
2013,07,14,16,06,19.40
2013,07,14,16,07,19.50
2013,07,14,16,08,19.70
2013,07,14,16,09,19.80
2013,07,14,16,10,20.00
2013,07,14,16,11,20.30
2013,07,14,16,12,20.60
2013,07,14,16,13,20.80
2013,07,14,16,14,21.00
2013,07,14,16,15,21.30
2013,07,14,16,16,21.60
2013,07,14,16,17,21.90
2013,07,14,16,18,22.20
2013,07,14,16,19,22.70
2013,07,14,16,20,23.10
2013,07,14,16,21,23.50
2013,07,14,16,22,23.90
2013,07,14,16,23,24.30
2013,07,14,16,24,24.70
2013,07,14,16,25,24.90
2013,07,14,16,26,25.20
2013,07,14,16,27,25.30
2013,07,14,16,28,25.50
2013,07,14,16,29,25.60
2013,07,14,16,30,25.60
2013,07,14,16,31,25.60
2013,07,14,16,32,25.60
2013,07,14,16,33,25.70
2013,07,14,16,34,25.80
2013,07,14,16,35,25.90
2013,07,14,16,36,26.00
2013,07,14,16,37,26.10
2013,07,14,16,38,26.20
2013,07,14,16,39,26.30
2013,07,14,16,40,26.30
2013,07,14,16,41,26.30
2013,07,14,16,42,26.40
2013,07,14,16,43,26.40
2013,07,14,16,44,26.50
2013,07,14,16,45,26.50
2013,07,14,16,46,26.40
2013,07,14,16,47,26.30
2013,07,14,16,48,26.20
2013,07,14,16,49,26.10
2013,07,14,16,50,26.00
2013,07,14,16,51,26.00
2013,07,14,16,52,26.00
2013,07,14,16,53,25.90
2013,07,14,16,54,25.80
2013,07,14,16,55,25.80
2013,07,14,16,56,25.90
2013,07,14,16,57,25.90
2013,07,14,16,58,25.90
2013,07,14,16,59,25.90
2013,07,14,17,00,25.90
2013,07,14,17,01,25.90
2013,07,14,17,02,25.80
2013,07,14,17,03,25.80
2013,07,14,17,04,25.80
2013,07,14,17,05,25.80
2013,07,14,17,06,25.80
2013,07,14,17,07,25.80
2013,07,14,17,08,25.90
2013,07,14,17,09,25.90
2013,07,14,17,10,25.90
2013,07,14,17,11,25.90
2013,07,14,17,12,25.90
2013,07,14,17,13,25.90
2013,07,14,17,14,26.00
2013,07,14,17,15,25.90
2013,07,14,17,16,25.90
2013,07,14,17,17,25.90
2013,07,14,17,18,25.90
2013,07,14,17,19,25.90